Location: ČR
(50.0000°N, 15.0000°E)
Time: 13:40:58
(UTC+00:00)

Vanguard 2 Rocket - All Passes

Search period start: 25 October 2021 00:00
Search period end: 04 November 2021 00:00
Orbit: 556 x 3323 km, 32.9° (Epoch: 24 October)

Date Brightness Start Highest point End Pass type
(mag) Time Alt. Az. Time Alt. Az. Time Alt. Az.
25 Oct - 01:42:27 10° SSE 01:45:39 11° SSE 01:48:35 10° SE visible
25 Oct - 03:50:02 10° SSW 03:59:32 22° SSE 04:06:16 10° ESE visible
25 Oct - 06:04:37 10° SW 06:12:43 24° S 06:18:12 10° SE daylight
25 Oct - 08:21:22 10° SW 08:24:39 13° SSW 08:27:22 10° S daylight
26 Oct - 02:49:25 10° SSW 02:59:19 20° SSE 03:06:39 10° ESE visible
26 Oct - 05:03:07 10° SW 05:12:59 27° S 05:19:31 10° SE visible
26 Oct - 07:19:19 10° WSW 07:25:29 20° SSW 07:29:56 10° SSE daylight
27 Oct - 01:49:28 10° S 01:58:55 18° SSE 02:06:22 10° ESE visible
27 Oct - 04:01:39 10° SW 04:12:58 27° S 04:20:32 10° ESE visible
27 Oct - 06:17:31 10° WSW 06:26:04 25° SSW 06:31:48 10° SE daylight
27 Oct - 08:36:23 10° SW 08:37:42 11° SW 08:38:56 10° SSW daylight
28 Oct - 00:50:44 10° S 00:58:24 14° SSE 01:04:57 10° ESE visible
28 Oct - 03:00:24 10° SSW 03:12:41 27° SSE 03:21:12 10° ESE visible
28 Oct - 05:15:41 10° WSW 05:26:21 29° S 05:33:16 10° SE daylight
28 Oct - 07:32:55 10° WSW 07:38:38 17° SSW 07:42:54 10° S daylight
28 Oct - 23:56:00 10° SSE 23:57:50 10° SE 23:59:38 10° SE visible
29 Oct - 01:59:36 10° SSW 02:12:09 24° SSE 02:21:25 10° ESE visible
29 Oct - 04:13:51 10° SW 04:26:19 32° S 04:34:26 10° ESE visible
29 Oct - 06:30:42 10° WSW 06:39:18 24° SSW 06:45:07 10° SSE daylight
30 Oct - 00:59:29 10° SSW 01:11:29 21° SSE 01:21:00 10° ESE visible
30 Oct - 03:12:10 10° SW 03:25:59 32° S 03:35:15 10° ESE visible
30 Oct - 05:28:33 10° WSW 05:39:38 30° SSW 05:46:47 10° SE daylight
30 Oct - 07:47:02 10° WSW 07:51:36 14° SW 07:55:15 10° S daylight
31 Oct - 00:00:29 10° S 00:10:45 17° SE 00:19:34 10° ESE visible
31 Oct - 02:10:48 10° SW 02:25:22 31° SSE 02:35:42 10° ESE visible
31 Oct - 04:26:25 10° WSW 04:39:38 34° S 04:48:05 10° SE visible
31 Oct - 06:44:09 10° WSW 06:52:22 22° SSW 06:58:06 10° SSE daylight
31 Oct - 23:03:44 10° SSE 23:10:05 12° SE 23:16:01 10° ESE visible
01 Nov - 01:09:59 10° SSW 01:24:33 28° SSE 01:35:40 10° ESE visible
01 Nov - 03:24:25 10° SW 03:39:15 36° S 03:49:02 10° ESE visible
01 Nov - 05:41:40 10° WSW 05:52:47 29° SSW 06:00:04 10° SE daylight
01 Nov - 08:02:53 10° SW 08:04:22 10° SW 08:05:45 10° SW daylight
02 Nov - 00:09:56 10° SSW 00:23:39 24° SSE 00:35:00 10° ESE visible
02 Nov - 02:22:41 10° SW 02:38:33 36° S 02:49:36 10° ESE visible
02 Nov - 04:39:16 10° WSW 04:52:48 34° SSW 05:01:31 10° SE visible
02 Nov - 06:58:00 10° WSW 07:05:14 18° SW 07:10:35 10° S daylight
02 Nov - 23:10:58 10° S 23:22:47 19° SE 23:33:21 10° ESE visible
03 Nov - 01:21:24 10° SW 01:37:36 34° SSE 01:49:47 10° ESE visible
03 Nov - 03:37:01 10° WSW 03:52:26 38° S 04:02:35 10° ESE visible
03 Nov - 05:55:01 10° WSW 06:05:45 26° SSW 06:13:01 10° SSE daylight
03 Nov - 22:13:57 10° SSE 22:22:03 14° SE 22:29:50 10° ESE visible
